Preview of NWS' New Version of Forecast
This preview is not operational and should not be used for support decisions.

Regional Weather Roundup (RWR)

Issued by National Weather Service (NWS)

                            
000
ASUS44 KJAN 210810
RWRMS 

MISSISSIPPI HOURLY WEATHER ROUNDUP
NATIONAL WEATHER SERVICE JACKSON MS
300 AM CDT SAT SEP 21 2019

NOTE: "FAIR: INDICATES FEW OR NO CLOUDS BELOW 12,000 FEET WITH NO
SIGNIFICANT WEATHER AND/OR OBSTRUCTIONS TO VISIBILITY.

MSZ001>002-007>008-010>013-018>021-025>028-034>036-210900-
NORTHWEST MISSISSIPPI
  
CITY           SKY/WX    TMP DP  RH WIND       PRES   REMARKS
BATESVILLE       N/A     64  63  94 CALM      30.16S                  
CLARKSDALE       N/A     68  66  94 CALM      30.15S                  
CLEVELAND      FAIR      72  61  69 SE7       30.13S                  
GREENWOOD      FAIR      68  59  73 N3        30.15S                  
GREENVILLE     FAIR      69  64  84 S6        30.13S                  
OLIVE BRANCH     N/A     70  63  78 SE5       30.16S                  
OXFORD         FAIR      68  61  77 SE6       30.18S                  
TUNICA           N/A     68  63  83 SE5       30.15S                  
WINONA         FAIR      64  60  87 CALM      30.17S                  
$$

MSZ003>006-009-014>017-022>024-029>033-037>039-210900-
NORTHEAST MISSISSIPPI
  
CITY           SKY/WX    TMP DP  RH WIND       PRES   REMARKS
ABERDEEN       FAIR      59  43  55 CALM      30.19S HAZE             
COLUMBUS AFB   NOT AVBL                                               
CORINTH        FAIR      64  63  94 CALM      30.19S                  
GOLDN TRIANGLE FAIR      70  58  65 SE9       30.19S                  
STARKVILLE       N/A     59  57  94 CALM      30.19S                  
TUPELO         FAIR      66  61  84 CALM      30.18S                  
$$

MSZ040-058-210900-
CENTRAL MISSISSIPPI
  
CITY           SKY/WX    TMP DP  RH WIND       PRES   REMARKS
JACKSON INTL   FAIR      67  60  78 CALM      30.15F                  
JACKSON HAWKNS FAIR      70  62  76 CALM      30.16S                  
MADISON        FAIR      64  64 100 CALM      30.17S                  
MERIDIAN KEY   FAIR      66  60  81 CALM      30.17F                  
MERIDIAN NAS   FAIR      62  57  83 CALM      30.18S                  
RAYMOND        FAIR      64  64 100 CALM      30.15S                  
VICKSBURG VKS  SUNNY     66  66 100 CALM      30.14S                  
$$

MSZ059>079-210900-
SOUTH MISSISSIPPI
  
CITY           SKY/WX    TMP DP  RH WIND       PRES   REMARKS
BROOKHAVEN     FAIR      66  64  94 CALM      30.17S                  
HATTIESBURG    FAIR      67  64  90 CALM      30.16S                  
LAUREL         MOSUNNY   64  63  96 NW3       30.16F                  
MCCOMB         FAIR      70  66  87 CALM      30.14F                  
NATCHEZ        FAIR      71  67  87 SE5       30.14F                  
PINE BELT      FAIR      66  65  96 CALM      30.17S                  
$$

MSZ080>082-210900-
COASTAL MISSISSIPPI
  
CITY           SKY/WX    TMP DP  RH WIND       PRES   REMARKS
BILOXI         NOT AVBL                                               
PASCAGOULA     FAIR      69  66  90 CALM      30.13S                  
GULFPORT       FAIR      73  67  81 NE5       30.11F                  
$$

LAZ007>009-015>016-023>026-210900-
NORTHEAST LOUISIANA
  
CITY           SKY/WX    TMP DP  RH WIND       PRES   REMARKS
BASTROP        FAIR      72  72  98 CALM      30.13S                  
TALLULAH/VBURG FAIR      68  63  84 CALM      30.14S                  
VIDALIA        FAIR     N/A N/A N/A SE6       30.12F                  
$$